RH
73 64 62 66 63 66 64 70 72 82 84 84 84 84 85 87 93 92 92 94 92 87 74 69 66 67 74 75 76 74 78 74 83 89 86 87 86 86 90 93 89 92 88
76 67 65 74 66 67 66 70 80 76 82 79 80 78 80 83 89 88 91 90 87 83 73 70 69 61 72 77 78 75 77 80 82 88 90 92 87 87 96 94 83 69 89
79 72 70 74 66 69 70 75 73 80 82 78 77 78 80 83 86 90 86 88 85 80 74 71 72 71 80 81 77 75 80 69 84 86 94 93 91 89 95 91 92 87 76
78 66 70 69 67 73 73 73 75 75 77 77 77 79 81 83 82 81 83 86 82 77 75 73 76 73 76 76 68 73 75 83 85 87 93 90 86 86 89 92 96 92 88
80 70 70 70 70 72 72 71 73 74 72 73 78 81 82 77 72 78 77 81 80 78 77 73 77 77 78 77 69 78 80 84 85 87 91 90 91 92 91 91 92 94 92
84 77 74 77 77 73 72 73 75 76 77 76 75 74 78 63 78 82 78 76 72 74 80 81 86 85 83 82 77 80 76 80 82 85 89 89 88 88 93 91 92 92 95
85 83 82 77 79 74 71 70 73 76 78 77 75 73 75 73 81 82 81 71 73 80 82 83 78 69 83 82 87 85 82 79 76 79 80 84 86 87 90 91 90 91 92
87 81 80 76 78 77 72 69 73 75 74 75 74 72 73 69 80 82 80 76 79 80 78 78 75 80 80 77 73 71 70 74 78 71 74 78 81 86 82 83 87 89 92
84 79 73 73 76 79 72 73 73 73 73 72 69 73 71 70 81 82 72 71 74 75 72 73 72 76 81 77 71 70 71 78 83 86 86 87 88 88 87 91 97 96 97
83 85 75 74 75 74 79 77 76 72 72 69 70 72 72 70 83 82 67 63 75 72 78 72 77 72 83 81 71 69 74 84 79 80 80 77 80 85 88 85 92 96 98
86 89 78 71 76 78 83 83 80 78 77 78 75 83 75 72 76 83 76 60 63 72 73 75 72 78 82 81 74 69 62 81 86 84 84 83 79 81 87 92 92 93 96
92 94 90 81 79 80 84 84 83 82 83 82 83 91 84 75 76 84 80 70 74 65 72 72 75 81 82 79 79 86 88 86 89 92 96 96 96 96 92 89 92 94 91
96 92 90 86 82 82 84 86 86 81 80 82 78 81 89 82 76 79 80 83 80 69 70 80 83 84 83 82 79 86 90 92 91 92 91 93 95 93 91 92 88 90 93
97 97 96 90 86 88 87 89 89 87 86 81 80 82 87 87 83 75 74 78 91 89 86 87 86 85 83 81 90 88 92 93 88 84 91 93 94 96 97 96 96 95 96
97 98 95 93 95 92 88 90 89 83 77 80 79 78 88 89 84 79 72 78 79 81 90 92 93 93 94 93 92 89 92 95 94 94 94 93 94 96 96 97 97 96 96
94 96 99 97 93 92 94 99 100 94 94 88 88 76 73 76 84 84 80 77 78 87 84 90 94 92 86 85 87 86 89 89 90 94 94 94 93 94 95 97 97 97 95
93 94 96 100 100 98 97 97 98 98 96 92 87 84 82 78 85 85 84 81 81 82 76 84 84 89 88 87 86 83 81 79 78 85 85 88 92 95 97 95 95 96 96
86 93 94 97 99 100 99 99 99 98 98 93 98 92 94 90 86 87 87 85 93 81 70 79 76 79 86 88 88 88 86 93 87 84 86 86 88 86 92 94 95 94 95
88 90 90 94 95 98 99 99 99 99 99 98 99 100 99 97 96 93 91 81 84 82 71 73 75 74 79 84 87 89 87 90 86 88 87 85 87 88 88 87 90 93 93
89 94 92 90 93 94 96 98 98 99 99 99 99 97 99 98 99 98 95 90 86 80 76 72 72 78 81 86 91 90 91 92 92 91 90 91 90 91 88 87 89 92 94
91 92 95 91 92 93 95 96 97 98 98 98 99 99 100 97 97 97 97 94 89 87 87 82 83 83 89 88 91 92 89 87 89 90 91 91 93 94 91 90 90 91 90
89 91 92 96 96 95 95 94 95 96 96 97 98 97 100 99 99 98 97 96 94 92 93 92 92 93 92 92 91 92 91 92 92 91 91 91 92 94 91 93 92 93 92
88 88 91 92 94 97 97 97 96 96 96 97 97 98 98 98 99 99 99 99 98 98 98 97 96 97 96 96 93 89 88 88 88 90 92 92 92 93 94 95 94 94 94
88 86 87 91 95 94 96 97 97 97 97 97 98 98 98 98 99 99 99 99 99 100 100 100 98 97 96 95 93 88 86 86 88 90 90 91 92 92 92 94 94 94 93
89 85 88 92 95 95 94 94 97 97 97 97 98 98 98 98 98 99 99 99 99 99 99 99 98 99 99 99 99 96 96 98 96 98 97 94 94 92 93 93 92 93 94
94 93 90 93 96 96 96 95 96 94 96 97 98 98 98 98 98 99 98 98 98 98 98 98 98 99 98 98 99 99 99 99 99 100 99 99 98 98 96 96 95 95 95
Wind_Speed
17 14 15 13 13 13 12 10 10 7 9 9 10 9 11 10 8 7 7 7 8 7 5 7 6 6 4 4 4 3 3 3 5 1 2 3 4 5 6 4 5 4 4
16 14 15 13 13 13 12 11 10 10 7 9 9 9 8 9 8 10 9 8 9 8 8 7 7 4 6 5 4 5 4 3 5 5 2 2 3 4 6 7 6 5 4
15 14 14 14 14 14 13 11 12 10 9 8 9 10 9 9 8 7 9 9 7 8 8 8 8 7 6 3 4 5 4 3 3 5 4 2 2 3 3 4 5 3 5
16 16 16 16 15 13 13 13 13 12 11 10 9 8 8 8 8 8 8 7 7 7 7 7 7 8 8 7 5 6 5 5 4 5 2 3 2 2 2 4 3 3 4
17 17 16 14 13 13 12 13 12 12 11 11 9 7 7 9 7 9 8 8 8 7 7 6 6 7 9 8 5 6 7 4 4 4 3 3 3 2 5 3 4 3 4
17 17 14 13 13 14 13 13 12 11 10 10 10 10 9 8 12 13 11 9 8 9 7 6 6 8 8 10 8 10 9 8 6 5 4 4 4 4 4 4 3 3 2
15 15 14 14 15 13 14 14 13 13 11 11 10 10 10 7 15 15 14 8 9 7 7 7 5 4 7 7 7 8 7 8 6 7 6 6 6 7 6 4 4 4 4
16 16 16 16 16 14 14 14 13 12 13 12 11 11 10 7 16 16 15 8 7 8 9 9 8 8 6 8 7 6 6 4 5 4 6 7 6 7 7 6 7 4 1
16 16 17 16 16 16 15 14 11 11 10 11 10 10 11 9 16 16 14 9 8 9 9 9 8 9 10 11 8 7 6 3 3 5 6 7 7 8 8 6 2 4 2
17 17 16 16 16 16 14 12 9 8 9 7 8 9 10 9 13 17 14 8 8 7 6 7 11 11 14 14 8 8 7 7 6 4 3 3 4 5 10 5 6 3 3
12 11 12 13 13 13 12 9 10 8 7 7 7 5 6 8 9 16 16 10 9 8 8 6 6 14 16 16 11 9 9 7 6 6 4 3 3 4 4 4 5 5 4
13 14 11 10 9 10 13 10 10 10 9 9 9 6 6 6 10 14 15 12 11 10 10 7 7 15 15 16 12 9 10 6 5 4 2 3 3 4 4 5 6 5 4
13 13 14 13 13 14 14 12 11 11 10 10 9 8 7 6 5 13 18 11 13 9 6 8 12 16 17 14 15 14 9 5 5 4 5 5 4 5 4 3 4 5 5
10 12 13 13 13 13 11 11 10 10 9 9 9 8 7 7 7 6 8 8 4 4 5 6 6 9 10 9 4 7 6 6 7 7 5 3 2 3 4 4 4 3 3
12 1 12 12 13 12 11 11 11 12 12 11 10 10 10 10 11 11 11 7 8 5 6 3 3 3 4 4 3 5 5 5 6 5 5 4 4 4 4 4 4 3 7
14 12 7 2 9 9 9 5 8 7 13 13 11 10 9 10 15 18 18 16 15 16 4 4 4 6 9 9 8 7 5 7 7 5 5 5 6 6 6 4 4 6 8
14 13 8 5 5 3 7 7 6 4 2 7 12 14 14 13 19 20 20 19 17 14 5 6 7 8 9 8 9 9 10 10 7 8 7 7 7 6 6 7 7 8 9
16 17 11 10 6 2 4 4 3 4 4 5 4 7 9 9 14 17 15 13 4 7 8 6 9 9 8 9 8 9 7 5 8 8 8 8 8 8 8 9 8 10 10
14 13 12 10 10 10 5 3 2 4 4 3 1 1 3 3 8 8 17 7 9 9 10 9 9 9 9 9 9 8 9 8 9 7 9 9 9 8 10 10 10 12 10
14 18 14 11 10 10 10 9 7 5 2 3 4 6 4 4 4 5 8 9 7 8 9 10 8 8 8 8 8 8 8 8 9 9 9 8 8 9 11 10 10 10 10
10 11 16 10 10 10 9 9 8 8 7 7 5 3 6 7 8 7 7 7 8 7 7 8 6 5 5 7 7 8 10 9 9 9 9 9 9 9 10 10 10 10 10
10 10 11 11 10 10 10 8 8 7 7 7 7 7 9 4 3 3 5 6 7 5 4 6 7 7 7 7 8 8 9 10 9 9 10 9 9 9 9 9 10 10 10
10 10 9 8 9 10 9 9 9 9 8 8 8 7 8 8 7 5 3 2 3 4 4 6 6 6 7 8 9 10 10 10 10 9 10 10 9 9 9 10 10 10 10
8 9 9 9 8 8 8 9 8 10 9 8 8 8 7 7 8 8 8 7 6 4 2 2 3 5 4 6 7 9 9 8 7 9 13 10 10 10 9 10 11 13 12
7 7 7 7 7 7 8 8 8 8 9 8 8 7 7 7 7 7 7 6 6 6 6 6 6 7 8 7 5 6 5 5 6 6 6 11 12 13 11 10 12 11 13
6 7 7 7 7 7 7 7 7 8 8 8 7 7 8 7 7 6 6 7 6 7 8 6 8 10 10 8 9 9 9 8 7 7 4 4 6 8 8 11 14 10 12
Wind_Direction
161 157 157 163 159 158 161 159 167 153 153 154 149 152 159 159 158 155 155 159 152 151 150 155 154 147 134 126 125 117 146 131 118 181 130 139 155 169 170 170 185 172 183
160 153 157 158 160 160 162 162 157 162 158 157 147 152 154 155 157 157 158 164 156 157 162 156 156 142 140 148 140 152 151 137 127 137 105 123 167 174 169 176 185 195 194
165 149 152 161 168 163 161 158 160 155 158 157 155 162 160 160 157 156 159 158 160 162 161 164 164 151 157 158 146 145 146 123 119 138 144 160 145 145 144 193 199 208 204
168 158 160 168 168 161 160 160 161 164 162 161 168 161 161 155 158 160 154 151 156 164 164 165 164 166 163 161 152 158 141 126 118 119 110 127 129 199 150 163 191 200 205
162 164 170 164 161 155 159 161 160 165 166 165 160 158 160 161 168 161 157 155 160 159 166 164 172 173 166 168 152 167 141 131 138 137 131 150 173 168 191 202 180 173 223
169 172 165 158 164 160 158 161 159 162 162 162 170 169 170 179 166 158 153 158 166 163 166 154 157 155 158 168 165 160 162 154 158 144 167 187 196 187 165 180 150 146 222
172 172 169 166 167 166 158 161 167 168 163 174 173 172 178 180 167 163 155 162 164 166 155 151 163 155 155 148 133 135 149 178 171 160 171 191 177 190 159 171 181 161 200
175 175 171 175 168 165 165 171 171 169 175 178 178 179 175 185 172 168 160 156 160 163 165 166 167 164 176 155 150 147 146 134 158 181 191 188 194 173 171 173 174 156 60
171 171 170 174 170 168 174 174 171 169 176 184 177 173 178 185 176 168 163 166 170 175 174 177 173 172 181 174 156 166 166 170 61 101 122 136 143 149 150 119 142 114 259
177 178 174 177 174 170 170 167 167 173 172 168 174 185 183 182 182 173 172 170 173 178 187 189 184 181 177 180 172 172 179 199 164 133 110 104 129 149 168 176 160 151 141
157 159 173 174 168 164 158 163 155 159 160 164 171 179 180 178 184 184 181 178 182 180 193 194 196 192 180 185 183 185 196 152 184 176 180 184 195 202 211 204 187 153 162
154 155 166 158 146 152 154 154 154 161 168 176 176 174 189 189 179 195 194 188 177 182 200 195 190 187 187 188 185 185 159 151 149 158 151 207 204 217 220 211 210 212 213
156 165 163 162 156 157 162 169 172 180 182 185 186 188 191 195 201 192 193 196 183 190 187 185 176 186 190 194 196 183 168 168 162 172 200 208 200 205 207 218 232 232 234
169 160 167 167 163 173 172 172 174 182 185 188 190 189 184 196 206 192 200 199 152 143 125 162 189 185 188 194 168 189 179 176 186 203 205 210 176 184 206 189 210 203 215
19 161 174 162 163 173 180 174 180 191 187 185 193 185 180 198 209 186 183 188 190 168 118 98 126 151 178 191 200 195 190 173 188 181 183 195 209 208 223 192 197 192 224
24 357 12 249 169 173 162 137 25 210 182 183 173 187 202 200 169 178 191 192 174 154 143 171 187 195 201 201 204 208 205 206 208 191 199 196 212 213 223 209 197 209 230
14 359 354 22 26 144 149 157 178 15 144 200 198 195 189 183 182 187 189 188 173 154 200 191 200 200 210 207 202 200 207 211 193 202 206 211 217 223 210 222 221 222 233
12 9 7 13 8 127 100 99 124 137 183 215 211 202 223 183 191 196 184 129 124 220 205 195 211 206 204 204 203 206 209 179 198 210 213 213 212 220 226 230 224 230 232
14 8 1 8 16 12 23 82 152 160 189 197 167 217 182 217 187 190 157 189 189 203 209 211 203 205 207 203 202 202 201 202 204 203 215 215 215 209 228 231 232 225 229
13 10 12 11 12 14 14 25 21 3 296 219 219 234 142 121 174 182 201 210 198 208 209 213 206 204 204 203 198 196 202 204 207 209 218 214 216 212 227 229 228 230 224
8 10 11 14 18 14 13 15 11 13 8 5 333 296 203 201 224 200 193 201 213 207 202 204 203 199 198 205 203 203 212 218 215 212 214 217 210 217 222 227 231 229 233
10 11 13 10 9 17 13 9 13 16 11 7 1 1 346 267 275 228 208 206 214 212 187 191 198 202 199 197 209 213 219 222 219 213 214 217 214 218 222 224 230 232 231
6 10 13 20 14 9 12 13 13 11 12 9 3 3 9 6 357 346 319 248 200 201 189 206 211 213 215 216 220 222 222 223 221 211 215 217 215 219 217 224 227 231 231
1 5 5 7 9 14 15 12 12 9 10 11 8 13 12 10 9 3 8 11 16 1 345 283 256 241 237 232 226 232 232 234 224 214 210 219 221 219 221 224 228 230 233
1 9 2 3 5 8 5 13 11 10 7 6 8 5 5 11 16 18 9 5 20 29 28 25 33 26 26 357 306 294 302 282 239 214 208 223 227 224 221 226 232 235 233
351 349 359 356 0 4 8 4 7 10 8 1 2 4 2 5 3 9 10 8 22 28 29 31 32 32 31 23 26 26 22 15 9 346 313 262 242 240 236 235 240 238 241